Date,TemperatureHighF,TemperatureAvgF,TemperatureLowF,DewpointHighF,DewpointAvgF,DewpointLowF,HumidityHigh,HumidityAvg,HumidityLow,PressureMaxIn,PressureMinIn,WindSpeedMaxMPH,WindSpeedAvgMPH,GustSpeedMaxMPH,PrecipitationSumIn
2013-1-1,46,32,19,27,21,15,95,68,37,30.36,30.16,2,0,7,0.01
2013-1-2,53,34,19,26,22,15,91,65,31,30.24,30.03,6,0,13,0.01
2013-1-3,48,34,23,33,26,19,89,73,42,30.25,30.04,5,1,16,0.00
2013-1-4,48,36,26,29,27,21,87,70,47,30.36,30.20,3,0,7,0.00
2013-1-5,58,36,21,31,21,15,88,62,20,30.44,30.24,1,0,5,0.00
2013-1-6,59,41,20,25,20,14,82,48,22,30.36,29.89,8,2,18,0.00
2013-1-7,59,44,28,25,20,8,70,42,14,29.93,29.71,7,1,15,0.00
2013-1-8,61,44,30,27,22,16,73,45,19,30.12,29.83,7,1,14,0.00
2013-1-9,62,46,23,24,18,13,75,37,16,30.33,30.01,6,1,16,0.00
2013-1-10,65,48,29,24,20,17,70,37,17,30.10,29.75,19,6,30,0.00
2013-1-11,50,39,22,32,15,5,67,39,18,30.04,29.73,17,4,33,0.00
2013-1-12,41,26,13,16,7,2,78,48,21,30.23,30.01,12,2,21,0.00
2013-1-13,45,26,8,12,3,-3,77,42,15,30.33,30.03,6,1,12,0.00
2013-1-14,42,23,8,8,2,-3,70,42,20,30.29,30.09,8,1,14,0.00
2013-1-15,41,24,10,3,-1,-5,59,36,16,30.50,30.26,7,1,13,0.00
2013-1-16,56,33,12,8,2,-5,51,30,14,30.54,30.27,7,1,15,0.00
2013-1-17,63,40,16,15,10,2,58,32,14,30.45,30.20,5,1,12,0.00
2013-1-18,66,40,18,18,12,7,64,36,12,30.39,30.15,4,0,9,0.00
2013-1-19,71,44,24,29,19,11,63,40,15,30.36,30.11,3,0,10,0.00
2013-1-20,72,49,27,32,25,16,68,43,21,30.27,29.98,4,0,11,0.00
2013-1-21,72,48,30,32,28,21,77,48,22,30.16,29.99,3,0,9,0.00
2013-1-22,73,48,29,33,27,21,83,51,17,30.27,30.04,6,0,13,0.00
2013-1-23,74,50,30,30,26,19,72,43,19,30.33,30.11,3,0,11,0.00
2013-1-24,70,55,44,39,34,29,58,46,25,30.23,30.08,5,0,12,0.00
2013-1-25,72,58,45,49,40,36,84,53,31,30.16,29.90,12,1,19,0.00
2013-1-26,65,56,49,55,46,38,90,72,38,29.94,29.82,15,5,19,0.25
2013-1-27,62,52,46,48,44,40,91,75,46,29.99,29.86,11,3,15,0.13
2013-1-28,56,48,35,44,38,27,85,70,42,29.97,29.81,20,9,35,0.04
2013-1-29,47,37,28,31,23,17,89,59,30,30.22,29.94,11,4,13,0.02
2013-1-30,52,36,22,26,18,11,85,53,21,30.41,30.21,6,1,11,0.00
2013-1-31,61,40,22,27,22,17,84,54,22,30.34,30.15,2,0,6,0.00
2013-2-1,68,44,23,29,23,15,86,52,13,30.31,30.10,2,0,4,0.00
2013-2-2,71,48,26,31,23,13,83,45,11,30.33,30.10,5,0,7,0.00
2013-2-3,63,48,39,44,32,24,80,57,23,30.11,29.93,11,0,18,0.02
2013-2-4,67,49,33,39,34,29,87,62,31,30.10,29.87,3,0,6,0.00
2013-2-5,68,49,31,39,32,27,89,57,22,30.08,29.88,6,1,11,0.00
2013-2-6,67,50,31,36,31,26,86,53,22,30.02,29.85,10,2,12,0.00
2013-2-7,66,46,28,36,27,23,87,54,20,30.15,29.96,5,0,9,0.00
2013-2-8,65,52,36,27,18,-4,67,30,6,29.96,29.67,19,9,26,0.00
2013-2-9,50,41,27,31,22,14,68,48,25,30.09,29.64,17,7,23,0.00
2013-2-10,57,38,17,23,11,-4,81,42,9,30.15,29.92,11,2,16,0.00
2013-2-11,52,38,26,32,19,6,87,50,26,30.15,29.92,15,6,21,0.00
2013-2-12,48,27,22,32,-9,-100,89,45,27,30.30,30.12,6,-250,11,0.06
2013-2-13,58,38,22,26,18,9,83,49,15,30.26,30.06,3,0,6,0.00
2013-2-14,64,40,18,22,17,12,80,46,16,30.25,30.01,6,1,10,0.00
2013-2-15,65,46,32,25,14,-5,63,33,6,30.30,30.06,10,1,13,0.00
2013-2-16,68,45,20,18,10,4,65,30,8,30.42,30.05,7,1,11,0.00
2013-2-17,72,48,25,16,8,-2,58,25,7,30.10,29.82,14,3,19,0.00
2013-2-18,67,49,26,16,9,0,46,23,8,30.09,29.88,11,3,15,0.00
2013-2-19,62,51,38,38,24,9,60,36,20,29.91,29.64,22,10,32,0.00
2013-2-20,49,39,29,35,28,21,89,68,42,29.93,29.63,22,7,28,0.11
2013-2-21,50,35,20,33,26,17,92,72,41,30.15,29.93,7,1,10,0.05
2013-2-22,56,40,25,33,28,22,90,66,30,30.16,29.98,11,1,11,0.00
2013-2-23,67,45,23,31,24,18,90,51,16,30.18,29.75,9,2,12,0.01
2013-2-24,54,40,22,24,13,0,67,35,12,30.10,29.70,19,7,27,0.00
2013-2-25,56,34,14,16,11,5,73,42,15,30.30,30.08,6,1,10,0.00
2013-2-26,66,40,17,20,12,8,76,40,11,30.12,29.90,13,2,18,0.00
2013-2-27,60,42,21,15,10,5,62,31,14,30.24,30.03,4,0,8,0.00
2013-2-28,62,43,22,12,6,-1,48,24,8,30.34,30.16,8,2,12,0.00
2013-3-1,72,47,20,20,13,3,52,28,13,30.45,30.18,8,1,10,0.00
2013-3-2,78,51,24,25,16,11,62,30,9,30.42,30.09,6,1,14,0.00
2013-3-3,81,57,31,23,15,7,57,25,6,30.17,29.78,13,2,21,0.00
2013-3-4,73,62,40,34,21,8,45,22,12,30.02,29.73,12,4,18,0.00
2013-3-5,74,56,34,30,25,18,60,33,15,30.13,29.90,12,3,16,0.00
2013-3-6,80,62,49,33,25,19,41,25,14,29.98,29.76,15,4,23,0.00
2013-3-7,74,59,42,31,26,22,53,31,16,29.93,29.77,14,5,20,0.00
2013-3-8,59,50,42,47,37,25,86,63,35,29.93,29.71,24,10,32,0.20
2013-3-9,52,42,33,34,30,24,85,63,42,30.09,29.88,17,3,19,0.01
2013-3-10,60,44,30,36,31,23,92,64,25,30.17,30.00,8,2,16,0.00
2013-3-11,71,50,28,32,24,15,85,43,12,30.20,29.97,6,1,9,0.00
2013-3-12,76,54,28,32,25,21,80,39,14,30.12,29.98,5,1,8,0.00
2013-3-13,82,60,34,27,23,20,63,29,11,30.19,29.96,6,1,8,0.00
2013-3-14,85,65,40,28,20,15,47,22,8,30.15,29.96,5,1,10,0.00
2013-3-15,88,65,36,27,19,12,56,22,7,30.11,29.80,13,3,16,0.00
2013-3-16,83,63,38,26,18,12,45,20,8,29.90,29.70,15,4,22,0.00
2013-3-17,78,60,41,27,20,12,35,23,13,29.85,29.73,15,4,23,0.00
2013-3-18,78,60,37,35,25,20,62,30,12,29.98,29.81,10,2,15,0.00
2013-3-19,76,60,40,32,26,19,53,30,16,29.98,29.85,11,3,20,0.00
2013-3-20,82,60,38,31,27,22,61,33,13,30.06,29.76,11,2,13,0.00
2013-3-21,79,60,42,31,24,11,49,28,8,29.78,29.63,10,2,14,0.00
2013-3-22,76,64,53,34,27,21,38,26,13,29.72,29.55,21,8,26,0.00
2013-3-23,74,57,41,31,22,12,56,30,12,29.92,29.69,14,4,22,0.00
2013-3-24,75,57,31,19,12,5,47,19,10,30.02,29.78,12,3,18,0.00
2013-3-25,75,55,29,19,13,2,38,20,11,30.02,29.85,7,1,13,0.00
2013-3-26,81,60,34,21,17,11,43,21,9,30.02,29.78,12,3,22,0.00
2013-3-27,78,62,43,29,22,14,37,23,11,29.93,29.81,13,4,23,0.00
2013-3-28,79,62,42,36,26,19,54,28,12,30.00,29.86,12,3,16,0.00
2013-3-29,82,65,43,33,25,18,44,23,13,30.08,29.86,8,2,12,0.00
2013-3-30,78,63,47,30,22,17,38,23,11,30.01,29.83,10,2,14,0.00
2013-3-31,82,60,38,30,24,18,49,27,13,30.03,29.82,9,1,15,0.00
2013-4-1,82,62,37,32,23,14,45,25,9,29.98,29.76,12,3,15,0.00
2013-4-2,79,58,37,29,20,6,52,27,6,29.89,29.74,13,3,18,0.00
2013-4-3,79,59,37,28,20,13,46,25,11,30.02,29.86,9,2,14,0.00
2013-4-4,83,61,39,30,20,15,41,23,9,30.09,29.85,7,1,13,0.00
2013-4-5,86,65,40,29,23,15,39,22,11,29.95,29.73,13,3,19,0.00
2013-4-6,82,65,47,36,29,22,48,27,14,29.90,29.69,9,2,14,0.00
2013-4-7,83,65,42,34,29,22,53,28,13,29.85,29.61,10,3,16,0.00
2013-4-8,76,65,53,38,34,26,55,32,20,29.62,29.28,32,18,56,0.00
2013-4-9,61,50,38,38,30,20,77,48,23,29.91,29.39,24,6,34,0.01
2013-4-10,67,49,35,32,26,19,81,47,20,29.98,29.83,11,3,16,0.00
2013-4-11,78,56,31,29,22,17,65,31,11,30.02,29.70,10,2,14,0.00
2013-4-12,78,62,40,27,23,17,45,24,13,29.79,29.65,9,2,18,0.00
2013-4-13,82,60,39,30,24,18,50,28,13,29.82,29.63,11,2,16,0.00
2013-4-14,80,64,41,37,29,21,53,29,14,29.75,29.60,18,8,24,0.00
2013-4-15,81,68,56,39,33,28,48,29,15,29.72,29.59,23,12,26,0.00
2013-4-16,79,66,53,44,31,16,55,31,11,29.73,29.60,26,13,34,0.00
2013-4-17,69,58,46,44,29,11,61,36,18,29.91,29.63,15,7,25,0.00
2013-4-18,67,51,30,15,9,1,37,20,9,30.11,29.91,10,3,16,0.00
2013-4-19,75,54,29,11,6,1,34,17,6,30.17,29.91,6,1,10,0.00
2013-4-20,82,59,27,17,8,-2,28,15,6,29.97,29.82,14,3,18,0.00
2013-4-21,86,64,35,20,14,9,34,17,7,30.00,29.83,8,2,14,0.00
2013-4-22,89,67,40,23,16,9,30,16,7,29.91,29.70,11,3,18,0.00
2013-4-23,86,73,51,26,20,-100,25,14,10,29.75,29.61,12,-4,22,0.00
2013-4-24,85,68,44,32,22,16,39,19,8,29.86,29.73,13,5,23,0.00
2013-4-25,81,69,55,31,24,14,35,20,8,29.90,29.71,23,9,29,0.00
2013-4-26,83,63,37,28,17,7,47,21,6,30.02,29.90,8,1,12,0.00
2013-4-27,85,65,39,28,19,12,37,19,9,30.01,29.79,6,1,9,0.00
2013-4-28,88,69,42,26,18,13,35,17,7,29.86,29.65,8,1,9,0.00
2013-4-29,91,70,42,21,13,8,30,13,5,29.76,29.58,9,1,13,0.00
2013-4-30,90,71,45,27,18,12,31,15,6,29.71,29.60,13,3,19,0.00
2013-5-1,87,71,53,26,20,12,29,16,7,29.89,29.68,12,3,19,0.00
2013-5-2,84,66,45,26,20,12,30,18,10,30.01,29.87,9,2,14,0.00
2013-5-3,80,64,44,21,17,14,34,19,9,30.01,29.74,9,1,13,0.00
2013-5-4,85,68,44,33,23,15,33,20,10,29.77,29.63,12,5,16,0.00
2013-5-5,84,71,61,35,29,22,34,22,11,29.79,29.67,15,8,21,0.00
2013-5-6,81,67,54,39,34,29,46,30,17,29.84,29.75,12,5,20,0.00
2013-5-7,79,67,52,40,31,23,51,29,13,29.87,29.74,15,8,19,0.00
2013-5-8,81,66,50,33,28,23,48,26,12,29.90,29.78,12,4,17,0.00
2013-5-9,81,65,46,38,29,21,63,30,12,29.89,29.76,10,2,15,0.00
2013-5-10,78,63,42,35,29,21,47,29,17,30.00,29.84,12,1,18,0.00
2013-5-11,81,64,42,37,33,26,60,34,18,30.03,29.93,8,1,15,0.00
2013-5-12,82,68,52,38,31,23,50,28,12,30.05,29.86,10,3,17,0.00
2013-5-13,88,69,45,36,24,13,45,22,7,30.01,29.84,10,2,13,0.00
2013-5-14,90,74,50,38,33,24,53,26,10,30.60,29.73,17,2,19,0.00
2013-5-15,91,75,57,36,31,-100,38,22,12,30.14,29.83,10,-4,17,0.00
2013-5-16,92,74,49,34,26,13,44,20,6,29.94,29.75,11,3,18,0.00
2013-5-17,88,73,49,33,24,16,38,18,7,29.82,29.72,12,5,18,0.00
2013-5-18,87,73,59,33,27,17,35,20,8,29.82,29.72,12,5,19,0.00
2013-5-19,91,70,46,36,24,10,54,23,5,29.85,29.70,8,1,18,0.00
2013-5-20,91,72,47,35,27,19,43,20,8,29.83,29.66,12,3,18,0.00
2013-5-21,92,72,46,24,17,10,34,15,5,29.85,29.68,9,1,11,0.00
2013-5-22,94,74,48,27,19,11,29,15,5,29.77,29.63,11,4,17,0.00
2013-5-23,93,77,58,33,23,7,30,15,4,29.75,29.66,11,5,14,0.00
2013-5-24,93,76,59,43,25,10,49,20,5,29.83,29.72,10,4,19,0.00
2013-5-25,92,74,49,36,22,15,36,17,6,29.87,29.76,11,4,17,0.00
2013-5-26,92,73,50,31,19,6,33,16,4,29.87,29.78,12,4,18,0.00
2013-5-27,94,74,49,34,16,2,35,15,4,29.83,29.65,10,3,15,0.00
2013-5-28,92,72,45,31,17,8,32,15,5,29.71,29.54,13,5,19,0.00
2013-5-29,90,74,54,36,30,26,43,23,10,29.67,29.57,9,2,17,0.00
2013-5-30,94,76,57,52,36,28,66,29,10,29.76,29.65,10,4,19,0.00
2013-5-31,98,77,52,52,36,28,58,27,9,29.80,29.65,10,2,13,0.00
2013-6-1,100,81,52,39,31,17,49,20,5,29.76,29.60,6,1,10,0.00
2013-6-2,101,82,56,42,31,24,40,18,7,29.70,29.56,12,3,15,0.00
2013-6-3,98,81,57,36,26,16,35,16,6,29.72,29.62,11,4,14,0.00
2013-6-4,96,78,59,44,33,27,44,22,9,29.77,29.68,12,3,18,0.00
2013-6-5,98,77,50,39,23,7,44,17,4,29.80,29.65,9,1,11,0.00
2013-6-6,100,78,48,27,20,14,28,13,5,29.76,29.61,17,1,17,0.00
2013-6-7,102,82,56,31,24,12,28,14,5,29.72,29.53,13,1,13,0.00
2013-6-8,101,81,62,36,27,20,28,16,6,29.72,29.60,22,3,22,0.00
2013-6-9,100,80,55,42,27,20,43,17,6,29.78,29.66,15,2,15,0.00
2013-6-10,103,82,56,34,25,-100,30,15,7,29.81,29.65,14,-13,14,0.00
2013-6-11,104,84,58,33,26,20,32,14,6,29.77,29.63,11,2,16,0.00
2013-6-12,104,88,65,42,34,23,30,16,9,29.80,29.66,14,1,14,0.00
2013-6-13,100,91,74,50,42,37,35,19,13,29.75,29.56,20,4,0,0.00
2013-6-14,94,79,64,56,51,39,63,39,23,29.71,29.60,19,2,0,0.00
2013-6-15,96,79,62,58,53,45,73,44,20,29.79,29.69,24,3,0,0.00
2013-6-16,99,81,61,56,46,33,66,34,13,29.82,29.68,20,2,0,0.00
2013-6-17,99,80,55,40,32,23,46,20,9,29.80,29.66,24,2,0,0.00
2013-6-18,100,80,52,37,26,17,42,17,6,29.76,29.61,20,3,0,0.00
2013-6-19,101,81,59,40,30,21,30,17,8,29.71,29.58,27,4,0,0.00
2013-6-20,99,84,61,40,31,12,28,17,5,29.69,29.57,18,4,18,0.00
2013-6-21,99,84,65,47,38,26,43,22,8,29.73,29.63,27,4,27,0.00
2013-6-22,98,82,63,41,33,25,37,19,8,29.73,29.60,29,5,29,0.00
2013-6-23,96,81,60,40,35,27,34,20,12,29.72,29.59,30,6,30,0.00
2013-6-24,96,82,68,45,39,34,35,23,15,29.73,29.61,38,6,38,0.00
2013-6-25,99,81,63,44,34,23,45,22,8,29.81,29.70,12,1,17,0.00
2013-6-26,100,80,55,38,31,23,37,18,11,29.91,29.77,19,1,19,0.00
2013-6-27,103,83,60,57,37,24,63,22,10,29.91,29.75,18,2,18,0.00
2013-6-28,106,86,62,41,35,30,34,18,9,29.83,29.67,23,1,23,0.00
2013-6-29,105,87,66,44,38,33,33,19,9,29.78,29.59,20,1,20,0.00
2013-6-30,104,84,67,64,48,39,79,35,13,29.76,29.53,22,2,26,0.10
2013-7-1,99,84,69,63,56,42,76,43,16,29.80,29.64,15,1,15,0.00
2013-7-2,96,80,65,61,56,51,85,48,22,29.90,29.69,26,2,26,0.06
2013-7-3,98,81,68,63,54,48,79,44,21,29.83,29.57,21,2,21,0.18
2013-7-4,98,82,66,63,57,50,81,49,21,29.72,29.56,23,4,23,0.02
2013-7-5,94,76,69,64,61,56,82,62,30,29.75,29.61,18,1,25,0.01
2013-7-6,100,80,62,65,60,52,91,56,21,29.74,29.59,17,1,17,0.00
2013-7-7,102,80,66,65,60,50,85,58,20,29.77,29.58,19,1,19,0.10
2013-7-8,98,82,70,65,60,55,77,52,25,29.87,29.70,22,2,22,0.07
2013-7-9,96,76,63,67,63,57,92,68,29,29.94,29.70,38,4,38,1.23
2013-7-10,90,76,65,68,65,62,94,73,43,29.90,29.74,16,2,16,1.00
2013-7-11,89,76,64,69,64,59,94,71,39,29.90,29.72,16,1,16,0.17
2013-7-12,92,78,66,68,62,56,92,61,31,29.86,29.68,16,1,16,0.16
2013-7-13,93,78,67,65,62,56,84,60,31,29.83,29.67,26,3,26,0.26
2013-7-14,96,80,68,67,62,54,85,58,25,29.82,29.66,19,1,19,0.00
2013-7-15,92,79,66,66,62,56,90,60,36,29.80,29.60,22,2,22,0.63
2013-7-16,82,69,65,67,64,62,95,84,53,29.95,29.77,14,1,14,1.51
2013-7-17,88,75,64,69,61,54,96,66,33,29.98,29.83,17,1,17,0.00
2013-7-18,84,74,64,62,59,57,84,61,41,29.91,29.76,14,1,14,0.00
2013-7-19,76,71,67,66,64,62,89,79,65,29.84,29.74,9,0,9,0.05
2013-7-20,80,72,65,68,65,61,93,78,52,29.80,29.69,14,1,14,0.21
2013-7-21,81,76,67,63,62,60,88,64,51,29.83,29.73,8,0,8,0.00
2013-7-22,88,73,66,65,63,60,88,72,41,29.86,29.75,14,0,14,0.00
2013-7-23,90,75,67,68,64,59,89,73,37,29.87,29.75,21,2,21,0.41
2013-7-24,86,75,67,68,65,61,92,74,44,29.86,29.76,13,1,13,0.03
2013-7-25,88,76,68,68,65,62,92,72,45,29.92,29.81,15,1,15,0.01
2013-7-26,90,74,67,69,65,60,92,76,41,29.99,29.88,23,1,23,0.07
2013-7-27,89,75,67,67,64,59,92,71,44,29.94,29.77,17,0,17,0.00
2013-7-28,68,67,65,65,64,62,92,90,85,29.79,29.75,0,0,0,0.00
2013-7-29,92,82,72,59,56,51,64,43,27,29.89,29.79,14,1,14,0.00
2013-7-30,91,78,64,63,57,51,85,52,27,29.98,29.85,10,0,10,0.00
2013-7-31,94,80,70,67,61,56,86,56,32,29.93,29.79,21,1,21,0.02
2013-8-1,77,71,66,66,64,61,91,78,62,29.95,29.83,17,0,17,0.39
2013-8-2,87,73,66,68,64,59,90,75,47,29.91,29.81,25,1,25,0.48
2013-8-3,91,76,62,66,61,57,91,64,32,29.92,29.79,11,0,11,0.00
2013-8-4,89,78,70,69,62,58,76,59,39,29.89,29.77,17,1,17,0.02
2013-8-5,84,72,62,66,62,55,92,75,40,29.98,29.80,26,1,26,0.64
2013-8-6,82,70,62,68,62,60,94,78,49,29.92,29.85,14,0,14,0.21
2013-8-7,84,67,59,64,58,54,94,77,37,29.95,29.84,10,0,10,0.01
2013-8-8,90,74,57,62,56,52,92,59,28,29.89,29.76,10,0,10,0.00
2013-8-9,91,76,58,60,56,52,89,53,28,29.85,29.75,19,1,19,0.00
2013-8-10,90,76,61,61,56,50,78,53,27,29.91,29.79,11,0,11,0.00
2013-8-11,89,77,63,65,61,58,87,61,39,29.88,29.73,13,1,13,0.00
2013-8-12,94,79,64,66,61,55,88,58,32,29.83,29.71,15,1,15,0.00
2013-8-13,96,79,61,64,57,49,78,50,28,29.88,29.72,15,0,15,0.00
2013-8-14,95,78,68,67,61,54,82,59,30,29.89,29.70,23,1,23,0.07
2013-8-15,94,80,68,63,60,56,81,53,30,29.88,29.76,11,0,11,0.01
2013-8-16,96,80,62,66,60,53,90,54,25,29.85,29.74,12,0,12,0.00
2013-8-17,97,82,63,66,58,52,88,51,23,29.86,29.69,14,0,14,0.00
2013-8-18,99,81,67,61,55,50,68,43,21,29.83,29.72,17,1,17,0.00
2013-8-19,97,78,66,61,57,52,74,53,25,29.84,29.72,13,0,13,0.00
2013-8-20,98,92,85,65,57,55,38,31,26,29.75,29.67,17,2,17,0.00
2013-8-21,92,77,64,67,62,56,93,64,32,29.85,29.75,14,0,14,0.14
2013-8-22,95,78,62,66,58,47,93,56,21,29.86,29.70,15,0,15,0.01
2013-8-23,92,77,60,62,57,52,90,54,27,29.82,29.63,20,1,20,0.04
2013-8-24,80,70,62,65,62,60,94,79,56,29.88,29.77,16,0,16,0.61
2013-8-25,86,73,66,69,65,62,92,77,48,29.91,29.79,15,0,15,0.09
2013-8-26,91,78,66,68,63,56,93,64,34,29.87,29.71,14,1,14,0.00
2013-8-27,91,77,62,65,59,52,92,59,27,29.80,29.66,19,1,19,0.00
2013-8-28,87,75,63,66,61,58,88,65,41,29.88,29.72,15,1,15,0.00
2013-8-29,83,72,67,69,65,62,93,80,52,29.98,29.87,22,0,22,0.27
2013-8-30,84,73,66,68,65,62,94,78,54,29.99,29.87,9,0,9,0.01
2013-8-31,92,75,59,66,60,57,93,64,34,29.93,29.75,15,0,15,0.00
2013-9-1,93,78,62,65,60,54,91,59,28,29.84,29.69,14,1,14,0.00
2013-9-2,90,76,63,67,62,58,90,66,38,29.88,29.69,19,0,19,0.76
2013-9-3,90,76,64,65,61,55,91,64,32,29.85,29.72,18,1,18,0.10
2013-9-4,91,76,59,65,59,51,94,62,26,29.89,29.78,13,1,13,0.01
2013-9-5,93,75,59,63,57,52,90,58,28,29.89,29.78,17,1,17,0.01
2013-9-6,93,75,60,63,57,54,90,59,28,29.89,29.74,22,1,22,0.04
2013-9-7,80,70,65,66,63,60,92,80,54,29.90,29.79,8,0,8,0.18
2013-9-8,82,70,65,68,63,61,94,82,52,29.85,29.68,12,0,12,0.14
2013-9-9,75,68,64,67,64,61,94,88,69,29.75,29.67,15,0,15,1.18
2013-9-10,84,71,62,67,61,55,95,73,39,29.84,29.74,16,0,16,0.01
2013-9-11,85,71,57,62,56,51,94,64,33,29.90,29.78,11,0,11,0.00
2013-9-12,90,72,59,66,60,54,91,68,39,29.83,29.65,13,0,13,0.15
2013-9-13,90,74,59,68,61,56,94,69,35,29.74,29.58,16,0,16,0.00
2013-9-14,92,78,63,66,60,53,88,58,28,29.68,29.56,13,0,13,0.00
2013-9-15,90,77,62,64,59,55,84,57,32,29.73,29.63,14,0,14,0.00
2013-9-16,92,77,60,63,58,55,90,57,30,29.79,29.66,13,0,13,0.00
2013-9-17,93,77,60,63,57,49,88,54,25,29.76,29.59,12,0,12,0.00
2013-9-18,94,79,66,64,55,47,73,46,22,29.68,29.53,12,0,12,0.00
2013-9-19,94,77,57,56,50,47,81,43,21,29.70,29.57,19,0,19,0.00
2013-9-20,90,70,59,63,56,47,91,64,37,29.81,29.65,16,1,16,1.05
2013-9-21,69,68,67,56,55,54,67,63,60,29.68,29.66,2,0,2,0.00
2013-9-22,85,74,62,63,57,52,80,58,37,29.66,29.52,19,2,19,0.00
2013-9-23,85,68,48,57,50,44,91,57,27,29.87,29.65,5,0,11,0.00
2013-9-24,89,68,47,52,46,40,90,53,22,29.95,29.77,13,0,13,0.00
2013-9-25,89,67,49,45,38,29,71,39,20,29.82,29.64,19,2,19,0.00
2013-9-26,86,72,56,55,40,27,64,34,21,29.70,29.59,21,3,21,0.00
2013-9-27,79,67,56,56,47,34,73,49,28,29.88,29.63,19,2,19,0.00
2013-9-28,83,64,46,47,40,31,73,44,22,30.02,29.88,6,0,12,0.00
2013-9-29,87,66,44,48,42,38,85,48,22,30.06,29.89,8,0,8,0.00
2013-9-30,89,64,44,44,37,31,78,44,15,29.96,29.79,11,0,11,0.00
2013-10-1,87,66,43,42,36,32,74,39,16,29.95,29.82,10,0,10,0.00
2013-10-2,86,65,44,47,38,34,79,42,17,29.93,29.77,16,1,16,0.00
2013-10-3,86,67,44,49,40,32,81,42,16,29.86,29.69,21,2,21,0.00
2013-10-4,86,69,50,52,39,26,83,39,12,29.90,29.73,19,2,19,0.00
2013-10-5,80,62,43,37,28,18,63,31,16,30.07,29.90,15,0,15,0.00
2013-10-6,82,60,37,30,23,19,57,27,10,30.13,29.99,14,0,14,0.00
2013-10-7,86,64,38,34,28,22,60,29,14,30.08,29.89,14,0,14,0.00
2013-10-8,84,66,45,40,31,23,61,31,13,29.89,29.75,20,3,20,0.00
2013-10-9,81,69,58,46,36,28,45,31,15,29.78,29.65,27,6,27,0.00
2013-10-10,72,62,46,48,40,30,70,47,22,29.87,29.65,31,4,31,0.00
2013-10-11,78,56,35,42,32,23,86,48,14,29.98,29.86,17,1,17,0.00
2013-10-12,83,60,37,38,32,23,76,41,11,29.99,29.84,19,1,19,0.00
2013-10-13,84,69,55,47,39,32,54,37,17,29.92,29.80,28,5,28,0.00
2013-10-14,80,68,55,53,46,41,65,48,27,29.90,29.79,19,1,19,0.00
2013-10-15,82,62,43,48,38,26,79,45,23,29.91,29.77,15,1,15,0.00
2013-10-16,79,56,34,30,20,4,68,31,6,30.04,29.91,13,1,13,0.00
2013-10-17,81,54,28,20,14,-2,58,27,5,30.09,29.90,11,0,11,0.00
2013-10-18,67,38,28,21,16,12,60,41,16,30.05,29.97,6,0,6,0.00
2013-10-19,83,61,31,25,17,8,60,23,7,30.10,29.92,10,0,10,0.00
2013-10-20,81,56,32,22,12,-2,53,24,4,29.99,29.84,15,1,15,0.00
2013-10-21,82,56,32,19,12,4,46,23,5,30.04,29.92,13,0,13,0.00
2013-10-22,82,58,31,25,17,8,53,24,6,30.11,29.95,12,0,12,0.00
2013-10-23,86,62,37,33,26,20,55,30,11,30.00,29.85,15,0,15,0.00
2013-10-24,85,65,45,38,29,22,46,29,11,29.96,29.83,23,2,23,0.00
2013-10-25,83,60,37,30,24,12,62,30,8,30.05,29.93,13,1,13,0.00
2013-10-26,82,59,34,29,23,17,62,31,9,30.12,30.00,10,0,10,0.00
2013-10-27,84,72,56,34,24,11,41,18,7,30.00,29.78,16,2,16,0.00
2013-10-28,78,64,49,30,25,15,41,25,10,29.89,29.77,24,4,24,0.00
2013-10-29,78,64,53,38,29,17,45,28,12,29.89,29.76,27,3,27,0.00
2013-10-30,72,58,37,42,32,22,59,41,16,29.99,29.79,22,3,22,0.00
2013-10-31,74,49,26,32,19,6,81,38,9,30.14,29.99,10,0,10,0.00
2013-11-1,76,49,24,19,11,3,57,27,7,30.23,30.07,8,0,8,0.00
2013-11-2,81,58,33,30,14,7,45,22,6,30.15,29.91,16,1,16,0.00
2013-11-3,79,62,45,46,41,23,77,49,24,29.91,29.69,25,0,25,0.00
2013-11-4,76,58,40,48,41,34,89,57,29,29.83,29.69,22,3,0,0.00
2013-11-5,71,56,38,44,38,28,75,52,26,30.11,29.79,20,2,0,0.00
2013-11-6,72,51,32,36,28,21,87,47,16,30.27,30.11,12,0,0,0.00
2013-11-7,75,53,28,36,26,15,62,38,21,30.33,30.11,17,1,0,0.00
2013-11-8,78,56,34,42,32,24,73,44,23,30.14,29.95,11,0,0,0.00
2013-11-9,79,55,33,42,33,24,78,47,23,30.14,30.02,13,0,0,0.00
2013-11-10,81,57,36,41,34,27,76,45,22,30.16,30.00,12,0,0,0.00
2013-11-11,83,59,37,42,35,27,76,44,22,30.12,29.96,22,0,0,0.00
2013-11-12,78,59,42,49,41,31,73,52,34,30.22,30.10,19,2,0,0.00
2013-11-13,73,57,46,45,41,36,74,56,36,30.22,30.00,14,1,0,0.00
2013-11-14,80,58,37,45,36,26,88,48,16,30.06,29.88,16,0,0,0.00
2013-11-15,70,60,41,50,46,26,77,61,41,29.90,29.62,35,7,0,0.00
2013-11-16,71,61,55,49,43,38,71,54,31,29.84,29.65,27,9,0,0.00
2013-11-17,73,59,47,46,43,38,85,58,30,30.02,29.83,19,2,0,0.00
2013-11-18,76,58,41,51,39,27,86,54,23,30.07,29.92,17,1,0,0.00
2013-11-19,78,55,36,47,31,24,78,47,15,30.02,29.84,17,2,0,0.00
2013-11-20,76,58,39,42,33,24,67,41,19,29.92,29.77,23,4,0,0.00
2013-11-21,70,59,48,48,44,35,73,58,44,29.90,29.81,23,4,0,0.00
2013-11-22,62,56,49,54,48,40,92,75,60,29.89,29.79,21,7,0,0.28
2013-11-23,49,45,42,45,40,38,92,85,73,30.10,29.88,25,4,0,0.35
2013-11-24,58,44,35,41,37,31,89,77,50,30.19,30.08,9,0,0,0.00
2013-11-25,56,41,27,38,32,24,92,74,43,30.32,30.15,13,1,0,0.00
2013-11-26,59,43,27,40,28,23,93,62,32,30.40,30.25,16,1,0,0.01
2013-11-27,58,43,33,31,26,24,76,53,28,30.30,30.10,13,0,0,0.00
2013-11-28,69,46,23,37,30,19,91,59,29,30.23,30.08,18,0,0,0.00
2013-11-29,73,54,34,43,37,29,87,56,26,30.23,30.07,20,2,0,0.00
2013-11-30,71,52,37,43,37,32,90,62,25,30.19,30.06,6,0,0,0.00
2013-12-1,62,51,42,41,38,35,78,62,44,30.20,30.10,1,0,0,0.00
2013-12-2,74,49,32,42,30,21,92,55,14,30.16,29.94,7,0,0,0.00
2013-12-3,73,53,29,44,31,15,77,48,12,29.96,29.75,35,4,0,0.00
2013-12-4,67,57,50,44,36,24,68,48,21,29.82,29.69,32,7,0,0.00
2013-12-5,52,44,33,43,37,29,90,78,55,30.06,29.78,22,2,0,0.11
2013-12-6,54,36,22,33,25,19,92,69,32,30.24,30.06,11,0,0,0.00
2013-12-7,60,40,20,34,19,10,92,52,16,30.17,30.02,33,6,0,0.01
2013-12-8,59,43,24,32,27,18,86,55,29,30.14,30.00,23,1,0,0.00
2013-12-9,56,38,24,36,24,14,92,61,26,30.37,30.07,10,1,0,0.00
2013-12-10,61,38,19,26,20,13,83,52,24,30.37,30.19,9,0,0,0.00
2013-12-11,68,47,28,41,28,17,68,48,32,30.31,30.19,13,1,0,0.00
2013-12-12,64,51,37,48,37,23,77,59,37,30.24,30.03,14,2,0,0.00
2013-12-13,60,43,27,38,30,24,92,64,32,30.20,30.06,14,1,0,0.01
2013-12-14,60,39,22,34,24,18,91,60,23,30.39,30.20,15,0,0,0.00
2013-12-15,66,43,22,28,20,15,84,47,17,30.42,30.25,8,0,0,0.00
2013-12-16,73,46,25,26,20,15,73,43,15,30.37,30.24,8,0,0,0.00
2013-12-17,78,48,26,28,22,16,71,41,14,30.35,30.17,9,0,0,0.00
2013-12-18,67,50,34,27,24,20,61,39,20,30.20,29.91,11,1,0,0.00
2013-12-19,66,54,44,28,24,17,45,31,16,29.91,29.68,22,6,0,0.00
2013-12-20,51,44,36,41,33,23,89,67,40,29.84,29.57,21,3,0,0.07
2013-12-21,50,42,32,36,32,28,89,70,45,30.08,29.82,21,2,0,0.00
2013-12-22,54,39,25,39,27,19,92,66,31,30.35,30.07,11,0,0,0.00
2013-12-23,63,39,20,35,22,16,91,57,22,30.49,30.35,13,1,0,0.00
2013-12-24,50,27,18,27,18,13,88,71,37,30.39,30.34,4,0,0,0.00
2013-12-25,65,49,23,30,26,17,86,46,24,30.37,30.23,9,0,0,0.00
2013-12-26,55,38,27,23,21,17,69,51,29,30.32,30.23,4,0,0,0.00
2013-12-27,63,39,21,29,21,15,88,53,22,30.38,30.24,9,0,0,0.00
2013-12-28,63,41,19,30,22,13,84,51,22,30.29,30.03,14,1,0,0.00
2013-12-29,64,46,31,29,23,18,70,43,20,30.18,29.98,9,1,0,0.00
2013-12-30,64,41,21,27,18,12,84,46,15,30.36,30.18,10,0,0,0.00
2013-12-31,67,42,21,25,18,12,75,42,17,30.36,30.18,6,0,0,0.00
2014-1-1,69,45,24,23,18,14,68,40,16,30.26,30.12,11,1,0,0.00
2014-1-2,69,46,25,26,20,13,68,40,19,30.30,30.13,14,1,0,0.00